Location: Oshawa
(43.9000°N, 78.8670°W)
Time: 01:17:37
(UTC-04:00)

Thor Agena Rocket - Visible Passes

Search period start: 02 July 2015 00:00
Search period end: 12 July 2015 00:00
Orbit: 759 x 810 km, 99.1° (Epoch: 01 July)

Date Brightness Start Highest point End Pass type
(mag) Time Alt. Az. Time Alt. Az. Time Alt. Az.
02 Jul 4.0 03:08:13 13° SSE 03:12:39 61° ENE 03:17:40 10° N visible
02 Jul 5.1 04:49:01 10° SW 04:52:28 17° W 04:55:42 10° NW visible
03 Jul 5.0 02:37:14 10° SE 02:41:42 32° ENE 02:46:12 10° N visible
03 Jul 4.3 04:17:21 15° SSW 04:21:01 33° W 04:25:34 10° NNW visible
04 Jul 5.9 02:07:34 10° ESE 02:10:52 18° ENE 02:14:19 10° NNE visible
04 Jul 3.5 03:45:53 17° S 03:49:46 64° WSW 03:54:49 10° NNW visible
05 Jul 3.8 03:14:25 15° SSE 03:18:40 68° ENE 03:23:43 10° N visible
05 Jul 5.2 04:55:30 10° SW 04:58:35 15° W 05:01:25 10° NW visible
06 Jul 4.9 02:43:07 10° SE 02:47:42 36° ENE 02:52:19 10° N visible
06 Jul 4.4 04:23:34 14° SSW 04:27:07 29° W 04:31:29 10° NW visible
07 Jul 5.8 02:13:18 10° ESE 02:16:50 20° ENE 02:20:31 10° NNE visible
07 Jul 3.6 03:52:06 18° S 03:55:50 57° W 04:00:49 10° NNW visible
08 Jul 6.3 01:44:55 10° ENE 01:46:07 11° ENE 01:47:35 10° NE visible
08 Jul 3.6 03:20:39 16° SSE 03:24:41 75° ENE 03:29:46 10° N visible
08 Jul 5.3 05:02:04 10° WSW 05:04:42 14° W 05:07:04 10° WNW visible
09 Jul 4.7 02:49:11 11° SE 02:53:42 40° ENE 02:58:25 10° N visible
09 Jul 4.6 04:29:47 14° SW 04:33:11 26° W 04:37:23 10° NW visible
10 Jul 5.6 02:19:04 10° ESE 02:22:50 22° ENE 02:26:42 10° NNE visible
10 Jul 3.7 03:58:20 18° S 04:01:53 51° W 04:06:48 10° NNW visible
11 Jul 6.2 01:50:14 10° E 01:52:04 12° ENE 01:54:09 10° NNE visible
11 Jul 3.5 03:26:52 18° SSE 03:30:44 84° ENE 03:35:48 10° NNW visible
11 Jul 5.4 05:08:47 10° WSW 05:10:49 12° W 05:12:33 10° WNW visible
